Location: Recife
(8.0585°S, 34.8848°W)
Time: 12:10:39
(UTC-03:00)

Courier 1B - Pass Details

Date: 16 April 2026
Orbit: 962 x 1209 km, 28.3° (Epoch: 15 May)

Event Time Altitude Azimuth Distance (km) Brightness Sun altitude
Exits shadow 04:26:48 - 305° (NW) 3,284 9.8 -14.3°
Reaches altitude 10° 04:27:39 10° 306° (NW) 2,996 9.6 -14.1°
Maximum altitude 04:35:06 74° 30° (NNE) 1,212 8.1 -12.2°
Drops below altitude 10° 04:42:55 10° 114° (ESE) 3,136 11.1 -10.3°
Sets 04:45:49 0° 116° (ESE) 4,110 11.8 -9.6°
